Tillbaka till svenska Fidonet
English   Information   Debug  
FILM   0/18
FNEWS_PUBLISH   4178
FN_SYSOP   41525
FN_SYSOP_OLD1   71952
FTP_FIDO   0/2
FTSC_PUBLIC   0/13569
FUNNY   0/4886
GENEALOGY.EUR   0/71
GET_INFO   105
GOLDED   0/408
HAM   0/16052
HOLYSMOKE   0/6791
HOT_SITES   0/1
HTMLEDIT   0/71
HUB203   466
HUB_100   264
HUB_400   39
HUMOR   0/29
IC   0/2851
INTERNET   0/424
INTERUSER   0/3
IP_CONNECT   719
JAMNNTPD   0/233
JAMTLAND   0/47
KATTY_KORNER   0/41
LAN   0/16
LINUX-USER   0/19
LINUXHELP   0/1155
LINUX   0/22010
LINUX_BBS   0/957
mail   18.68
mail_fore_ok   249
MENSA   0/341
MODERATOR   0/102
MONTE   0/992
MOSCOW_OKLAHOMA   0/1245
MUFFIN   0/783
MUSIC   0/321
N203_STAT   898
N203_SYSCHAT   313
NET203   321
NET204   69
NET_DEV   0/10
NORD.ADMIN   0/101
NORD.CHAT   0/2572
NORD.FIDONET   189
NORD.HARDWARE   0/28
NORD.KULTUR   0/114
NORD.PROG   0/32
NORD.SOFTWARE   0/88
NORD.TEKNIK   0/58
NORD   0/453
OCCULT_CHAT   0/93
OS2BBS   0/787
OS2DOSBBS   0/580
OS2HW   0/42
OS2INET   0/37
OS2LAN   0/134
OS2PROG   0/36
OS2REXX   0/113
OS2USER-L   207
OS2   0/4784
OSDEBATE   0/18996
PASCAL   0/490
PERL   0/457
PHP   0/45
POINTS   0/405
POLITICS   0/29554
POL_INC   0/14731
PSION   103
R20_ADMIN   1117
R20_AMATORRADIO   0/2
R20_BEST_OF_FIDONET   13
R20_CHAT   0/893
R20_DEPP   0/3
R20_DEV   399
R20_ECHO2   1379
R20_ECHOPRES   0/35
R20_ESTAT   0/719
R20_FIDONETPROG...
...RAM.MYPOINT
  0/2
R20_FIDONETPROGRAM   0/22
R20_FIDONET   0/248
R20_FILEFIND   0/24
R20_FILEFOUND   0/22
R20_HIFI   0/3
R20_INFO2   2736
R20_INTERNET   0/12940
R20_INTRESSE   0/60
R20_INTR_KOM   0/99
R20_KANDIDAT.CHAT   42
R20_KANDIDAT   28
R20_KOM_DEV   112
R20_KONTROLL   0/13050
R20_KORSET   0/18
R20_LOKALTRAFIK   0/24
R20_MODERATOR   0/1852
R20_NC   76
R20_NET200   245
R20_NETWORK.OTH...
...ERNETS
  0/13
R20_OPERATIVSYS...
...TEM.LINUX
  0/44
R20_PROGRAMVAROR   0/1
R20_REC2NEC   534
R20_SFOSM   0/340
R20_SF   0/108
R20_SPRAK.ENGLISH   0/1
R20_SQUISH   107
R20_TEST   2
R20_WORST_OF_FIDONET   12
RAR   0/9
RA_MULTI   106
RA_UTIL   0/162
REGCON.EUR   0/2055
REGCON   0/13
SCIENCE   0/1206
SF   0/239
SHAREWARE_SUPPORT   0/5146
SHAREWRE   0/14
SIMPSONS   0/169
STATS_OLD1   0/2539.065
STATS_OLD2   0/2530
STATS_OLD3   0/2395.095
STATS_OLD4   0/1692.25
SURVIVOR   0/495
SYSOPS_CORNER   0/3
SYSOP   0/84
TAGLINES   0/112
TEAMOS2   0/4530
TECH   0/2617
TEST.444   0/105
TRAPDOOR   0/19
TREK   0/755
TUB   0/290
UFO   0/40
UNIX   0/1316
USA_EURLINK   0/102
USR_MODEMS   0/1
VATICAN   0/2740
VIETNAM_VETS   0/14
VIRUS   0/378
VIRUS_INFO   0/201
VISUAL_BASIC   0/473
WHITEHOUSE   0/5187
WIN2000   0/101
WIN32   0/30
WIN95   0/4276
WIN95_OLD1   0/70272
WINDOWS   0/1517
WWB_SYSOP   0/419
WWB_TECH   0/810
ZCC-PUBLIC   0/1
ZEC   4

 
4DOS   0/134
ABORTION   0/7
ALASKA_CHAT   0/506
ALLFIX_FILE   0/1313
ALLFIX_FILE_OLD1   0/7997
ALT_DOS   0/152
AMATEUR_RADIO   0/1039
AMIGASALE   0/14
AMIGA   0/331
AMIGA_INT   0/1
AMIGA_PROG   0/20
AMIGA_SYSOP   0/26
ANIME   0/15
ARGUS   0/924
ASCII_ART   0/340
ASIAN_LINK   0/651
ASTRONOMY   0/417
AUDIO   0/92
AUTOMOBILE_RACING   0/105
BABYLON5   0/17862
BAG   135
BATPOWER   0/361
BBBS.ENGLISH   0/382
BBSLAW   0/109
BBS_ADS   0/5290
BBS_INTERNET   0/507
BIBLE   0/3563
BINKD   0/1119
BINKLEY   0/215
BLUEWAVE   0/2173
CABLE_MODEMS   0/25
CBM   0/46
CDRECORD   0/66
CDROM   0/20
CLASSIC_COMPUTER   0/378
COMICS   0/15
CONSPRCY   0/899
COOKING   28146
COOKING_OLD1   0/24719
COOKING_OLD2   0/40862
COOKING_OLD3   0/37489
COOKING_OLD4   0/35496
COOKING_OLD5   9370
C_ECHO   0/189
C_PLUSPLUS   0/31
DIRTY_DOZEN   0/201
DOORGAMES   0/2006
DOS_INTERNET   0/196
duplikat   6000
ECHOLIST   0/18295
EC_SUPPORT   0/318
ELECTRONICS   0/359
ELEKTRONIK.GER   1534
ENET.LINGUISTIC   0/13
ENET.POLITICS   0/4
ENET.SOFT   0/11701
ENET.SYSOP   33794
ENET.TALKS   0/32
ENGLISH_TUTOR   0/2000
EVOLUTION   0/1335
FDECHO   0/217
FDN_ANNOUNCE   0/7068
FIDONEWS   23490
FIDONEWS_OLD1   0/49742
FIDONEWS_OLD2   0/35949
FIDONEWS_OLD3   0/30874
FIDONEWS_OLD4   0/37224
FIDO_SYSOP   12841
FIDO_UTIL   0/180
FILEFIND   0/209
FILEGATE   0/212
Möte HAM, 16052 texter
 lista första sista föregående nästa
Text 2366, 801 rader
Skriven 2008-06-13 00:30:20 av Amsat List (1:323/120.0)
Ärende: [keps]  orb08164.amsa
=============================
[keps]  orb08164.amsa

Return-Path: <keps-bounces@amsat.org>
X-Rcpt: craig.healy@chowda.com
X-UIDL: 1213330674.21996

SB KEPS @ AMSAT  $ORB08164.O
Orbital Elements  08164.OSCAR

HR AMSAT ORBITAL ELEMENTS FOR OSCAR SATELLITES
FROM WA5QGD FORT WORTH,TX June 12, 2008
Send Subscribe/unsubscribe to KEPS at 
http://www.amsat.org/mailman/listinfo/keps
BID: ORB08164.O
TO ALL RADIO AMATEURS BT

Satellite: AO-07
Catalog number: 07530
Epoch time:      08163.70711665
Element set:    0201
Inclination:      101.4660 deg
RA of node:       195.3879 deg
Eccentricity:    0.0011569
Arg of perigee:   273.5729 deg
Mean anomaly:     086.4015 deg
Mean motion:   12.53573841 rev/day
Decay rate:       -2.7e-07 rev/day^2
Epoch rev:           53629
Checksum:              302

Satellite: AO-10
Catalog number: 14129
Epoch time:      08163.40471932
Element set:    0517
Inclination:      025.9622 deg
RA of node:       210.9212 deg
Eccentricity:    0.5985453
Arg of perigee:   131.1601 deg
Mean anomaly:     298.5147 deg
Mean motion:   02.05867520 rev/day
Decay rate:       1.57e-06 rev/day^2
Epoch rev:           18798
Checksum:              301

Satellite: UO-11
Catalog number: 14781
Epoch time:      08163.84331037
Element set:    0694
Inclination:      098.1528 deg
RA of node:       197.7970 deg
Eccentricity:    0.0010193
Arg of perigee:   090.7985 deg
Mean anomaly:     269.4393 deg
Mean motion:   14.79645720 rev/day
Decay rate:      -2.43e-06 rev/day^2
Epoch rev:           30306
Checksum:              327

Satellite: RS-15
Catalog number: 23439
Epoch time:      08163.95834534
Element set:    0179
Inclination:      064.8142 deg
RA of node:       143.5010 deg
Eccentricity:    0.0147470
Arg of perigee:   123.8255 deg
Mean anomaly:     237.6803 deg
Mean motion:   11.27552232 rev/day
Decay rate:       -3.9e-07 rev/day^2
Epoch rev:           55437
Checksum:              298

Satellite: FO-29
Catalog number: 24278
Epoch time:      08163.79666750
Element set:    0800
Inclination:      098.5852 deg
RA of node:       080.7912 deg
Eccentricity:    0.0350001
Arg of perigee:   229.4327 deg
Mean anomaly:     127.5856 deg
Mean motion:   13.52938108 rev/day
Decay rate:        4.2e-07 rev/day^2
Epoch rev:           58366
Checksum:              327

Satellite: SO-33
Catalog number: 25509
Epoch time:      08163.73786713
Element set:    0218
Inclination:      031.4355 deg
RA of node:       347.1603 deg
Eccentricity:    0.0355016
Arg of perigee:   339.5214 deg
Mean anomaly:     019.1515 deg
Mean motion:   14.28214371 rev/day
Decay rate:      -1.05e-06 rev/day^2
Epoch rev:           50283
Checksum:              280

Satellite: AO-40
Catalog number: 26609
Epoch time:      08163.23680576
Element set:      75
Inclination:      007.5807 deg
RA of node:       078.1579 deg
Eccentricity:    0.7915374
Arg of perigee:   090.2424 deg
Mean anomaly:     349.6788 deg
Mean motion:   01.25583634 rev/day
Decay rate:       -6.6e-07 rev/day^2
Epoch rev:            3496
Checksum:              343

Satellite: VO-52
Catalog number: 28650
Epoch time:      08164.88101300
Element set:     954
Inclination:      097.7901 deg
RA of node:       231.6101 deg
Eccentricity:    0.0027807
Arg of perigee:   152.6078 deg
Mean anomaly:     207.6643 deg
Mean motion:   14.81471116 rev/day
Decay rate:       -6.6e-07 rev/day^2
Epoch rev:           16796
Checksum:              301

Satellite: PO-63
Catalog number: 29712
Epoch time:      08164.83008721
Element set:     526
Inclination:      097.8751 deg
RA of node:       223.0984 deg
Eccentricity:    0.0015194
Arg of perigee:   039.4072 deg
Mean anomaly:     320.8232 deg
Mean motion:   14.80179209 rev/day
Decay rate:       4.27e-06 rev/day^2
Epoch rev:            7682
Checksum:              308

/EX
SB KEPS @ AMSAT  $ORB08164.D
Orbital Elements  08164.MICROS

HR AMSAT ORBITAL ELEMENTS FOR THE MICROSATS
FROM WA5QGD FORT WORTH,TX June 12, 2008
Send Subscribe/unsubscribe to KEPS at 
http://www.amsat.org/mailman/listinfo/keps
BID: ORB08164.D
TO ALL RADIO AMATEURS BT

Satellite: AO-16
Catalog number: 20439
Epoch time:      08164.87786119
Element set:     343
Inclination:      098.2295 deg
RA of node:       145.1612 deg
Eccentricity:    0.0010533
Arg of perigee:   184.9105 deg
Mean anomaly:     175.1966 deg
Mean motion:   14.31795740 rev/day
Decay rate:        9.0e-08 rev/day^2
Epoch rev:           96030
Checksum:              311

Satellite: LO-19
Catalog number: 20442
Epoch time:      08163.52846113
Element set:    0270
Inclination:      098.2007 deg
RA of node:       152.4350 deg
Eccentricity:    0.0011795
Arg of perigee:   186.4025 deg
Mean anomaly:     173.7001 deg
Mean motion:   14.32033517 rev/day
Decay rate:       -6.1e-07 rev/day^2
Epoch rev:           96026
Checksum:              264

Satellite: AO-27
Catalog number: 22825
Epoch time:      08163.67011409
Element set:     990
Inclination:      098.3833 deg
RA of node:       123.8979 deg
Eccentricity:    0.0007469
Arg of perigee:   277.1895 deg
Mean anomaly:     082.8429 deg
Mean motion:   14.29240399 rev/day
Decay rate:       -2.9e-07 rev/day^2
Epoch rev:           76698
Checksum:              365

Satellite: IO-26
Catalog number: 22826
Epoch time:      08163.86510828
Element set:    0697
Inclination:      098.3760 deg
RA of node:       124.9985 deg
Eccentricity:    0.0008062
Arg of perigee:   275.3778 deg
Mean anomaly:     084.6481 deg
Mean motion:   14.29489442 rev/day
Decay rate:       -4.0e-08 rev/day^2
Epoch rev:           76710
Checksum:              348

